DELTA 1 DEB, 27788

Orbit data source: Space-Track

DELTA 1 DEB, 27788 is space debris in LEO originally from a launch on Sat, 06 Nov 1965 UTC launched from the Air Force Eastern Test Range (AFETR). Debris objects in space refer to the collection of defunct objects orbiting the Earth. Examples of debris include non-operational satellites, rocket bodies, and fragments generated from explosions, collisions, or faulty payload assembly.

Loading next visibility...
Identifier
27788, 1965-089E
Orbit
LEO
Last TLE update
5 months ago
Origin
Manufacturer
Unknown
Mission
Spacecraft
Bus & Motor
Unknown
Mass
Unknown
Launch date (UTC)
1965-11-06 (60 years ago)
Launch vehicle
Unknown
Launch site
Air Force Eastern Test Range (AFETR)
Object type
Payload
Rocket body
Debris
Shape & HBR
Unknown
Radar Cross Section
Small (<0.1 m²)

Expand to show TLE details & history

TLE from 5 months ago
0 DELTA 1 DEB
1 27788U 65089E   24355.68815587  .00000327  00000-0  19033-2 0  9997
2 27788  59.3860 334.6826 0615575 217.0709 321.5455 12.28013798547116
Epoch: 2024-12-20T16:30Z
Definitive object data (Epoch: 2024-12-20T16:30:56.667Z)
Latitude
5.14849°
Longitude
174.15588°
Altitude
1,188.603 km
Speed
7.428 km/s
True Right ascension
10h 06m 34s
True Declination
5° 07' 11"
Sunlit
Object was in daylight at TLE epoch
Visualization TLE readout
Latitude
44.28453°
Longitude
60.13774°
Altitude
1,624.394 km
Speed
7.036 km/s
Apparent Right ascension
02h 44m 48s
Apparent Declination
8° 00' 55"
Sunlit
Object is in full shadow
Visualization observer readout
Local Sidereal Time
15:01:34
Azimuth
5.581° NNE
Elevation
-41.912°
Doppler factor
1
Orbital elements
Apogee altitude
2,045.692 km
Perigee altitude
1,068.732 km
Semi-major axis
7,935.349 km
Eccentricity
0.0615575
Inclination
59.386°
RAAN
334.6826°
Arg. of periapsis
217.0709°
True anomaly
316.88337°
Mean anomaly
321.5455°
Eccentric anomaly
319.24289°
Mean motion
3.07039 °/min
BSTAR
0.0019033
Orbital period
117.25 mins
Loading maneuver chart data...
Loading SW <> Apogee altitude chart data...
Loading historical data...
Loading historical data...
Loading historical data...
Loading historical data...
Loading historical data...
Loading historical data...
Loading historical data...

DELTA 1 DEB Visibility forecast

Observer location: undefined°, undefined°

Span
Click to sort rows by Start time (UTC) header in descending order
Start Az.
Max El. time (UTC)
Max El. Az.
Max El.
End time (UTC)
End Az.
15 mins2025-05-09 16:27:40.065Z175.13° S2025-05-09 16:34:40.065Z110.2° ESE31.323°2025-05-09 16:42:40.065Z52.8° ENE
17 mins2025-05-09 18:28:40.065Z239.396° WSW2025-05-09 18:35:40.065Z307.993° NW41.578°2025-05-09 18:45:40.065Z36.887° NE
16 mins2025-05-09 20:33:40.065Z292.747° NW2025-05-09 20:40:40.065Z344.929° N26.516°2025-05-09 20:49:40.065Z40.988° NE
17 mins2025-05-09 22:39:40.065Z324.237° NNW2025-05-09 22:46:40.065Z11.373° NNE26.696°2025-05-09 22:56:40.065Z71.252° E
21 mins2025-05-10 00:42:40.065Z325.319° NNW2025-05-10 00:52:40.065Z47.494° ENE40.602°2025-05-10 01:03:40.065Z118.761° SE
21 mins2025-05-10 02:44:40.065Z311.527° NW2025-05-10 02:54:40.065Z246.042° WSW38.749°2025-05-10 03:05:40.065Z170.292° S
|